"Timestamp","TZ","WindDir_Mean (deg)","WindSpd_Mean (km/h)","WindSpd_Min (km/h)","WindSpd_Max (km/h)","Temp_Mean (deg)","RH_Mean (%)","MSLP_Mean (hPa)","Rain_Acc (mm)","Rain_Intensity (mm/h)","Hail_Acc (hits/cm2)","Hail_Intensity (hits/cm2hr)","Solar_Mean (W/m2)"
2022/02/04 00:00:00.003,n,153,6.48,3.24,10.08,21.2,79.5,1004.82,0,0,0,0,0.0383
2022/02/04 00:01:00.004,n,320,2.52,1.08,3.96,21.2,79.5,1004.82,0,0,0,0,0.039177
2022/02/04 00:02:00.000,n,140,6.84,4.68,9.72,21.2,79.5,1004.72,0,0,0,0,0.040054
2022/02/04 00:03:00.003,n,258,5.76,3.6,6.48,21.2,79.4,1004.72,0,0,0,0,0.042686
2022/02/04 00:04:00.000,n,185,8.64,7.2,10.8,21.2,79.1,1004.72,0,0,0,0,0.041771
2022/02/04 00:05:00.000,n,172,5.4,3.6,7.92,21.2,79,1004.72,0,0,0,0,0.03746
2022/02/04 00:06:00.002,n,158,2.16,0.36,3.6,21.2,79.2,1004.72,0,0,0,0,0.040054
2022/02/04 00:07:00.006,n,207,7.92,7.2,8.28,21.2,79,1004.72,0,0,0,0,0.03746
2022/02/04 00:08:00.011,n,251,7.56,7.2,7.92,21.2,79,1004.72,0,0,0,0,0.040894
2022/02/04 00:09:00.000,n,190,2.16,1.44,3.6,21.2,79,1004.72,0,0,0,0,0.035706
2022/02/04 00:10:00.000,n,152,5.4,5.04,6.12,21.2,78.8,1004.72,0,0,0,0,0.036583
2022/02/04 00:11:00.000,n,151,0.72,0.36,1.44,21.2,79.1,1004.62,0,0,0,0,0.036583
2022/02/04 00:12:00.000,n,185,6.12,5.04,6.84,21.2,78.8,1004.62,0,0,0,0,0.03746
2022/02/04 00:13:00.003,n,213,1.8,1.44,2.16,21.2,79.2,1004.62,0,0,0,0,0.036583
2022/02/04 00:14:00.000,n,269,3.6,2.88,5.04,21.3,79,1004.62,0,0,0,0,0.036583
2022/02/04 00:15:00.000,n,181,4.68,3.6,6.12,21.3,79,1004.62,0,0,0,0,0.034828
2022/02/04 00:16:00.002,n,261,1.8,0.72,2.88,21.2,78.8,1004.62,0,0,0,0,0.03746
2022/02/04 00:17:00.007,n,168,4.68,4.32,5.04,21.2,78.7,1004.52,0,0,0,0,0.039177
2022/02/04 00:18:00.012,n,82,2.52,1.8,3.24,21.2,78.6,1004.52,0,0,0,0,0.036583
2022/02/04 00:19:00.004,n,180,4.68,2.16,7.92,21.2,78.7,1004.52,0,0,0,0,0.03746
2022/02/04 00:20:00.000,n,86,3.96,2.52,5.76,21.2,78.7,1004.52,0,0,0,0,0.036583
2022/02/04 00:21:00.000,n,162,4.32,3.96,4.68,21.2,78.3,1004.52,0,0,0,0,0.033112
2022/02/04 00:22:00.000,n,212,7.2,6.84,7.56,21.2,78.2,1004.52,0,0,0,0,0.035706
2022/02/04 00:23:00.006,n,222,5.4,4.68,5.76,21.2,78.1,1004.52,0,0,0,0,0.034828
2022/02/04 00:24:00.000,n,169,1.08,0.72,1.8,21.2,78.4,1004.52,0,0,0,0,0.036583
2022/02/04 00:25:00.000,n,181,7.56,6.84,7.92,21.2,77.9,1004.52,0,0,0,0,0.035706
2022/02/04 00:26:00.005,n,233,3.6,2.88,4.32,21.2,78,1004.52,0,0,0,0,0.036583
2022/02/04 00:27:00.010,n,146,4.32,3.96,5.04,21.2,78,1004.52,0,0,0,0,0.036583
2022/02/04 00:28:00.000,n,222,7.2,5.4,9.36,21.2,77.6,1004.52,0,0,0,0,0.036583
2022/02/04 00:29:00.000,n,191,7.2,6.48,9,21.2,77.4,1004.52,0,0,0,0,0.033112
2022/02/04 00:30:00.000,n,210,3.6,3.24,4.32,21.2,77.4,1004.52,0,0,0,0,0.031357
2022/02/04 00:31:00.000,n,182,2.16,1.44,2.52,21.2,77.6,1004.52,0,0,0,0,0.033951
2022/02/04 00:32:00.004,n,233,3.24,0.36,5.04,21.2,77.3,1004.52,0,0,0,0,0.039177
2022/02/04 00:33:00.009,n,204,1.8,0.72,3.6,21.2,77.4,1004.52,0,0,0,0,0.034828
2022/02/04 00:34:00.000,n,214,1.8,0.36,6.12,21.2,77.3,1004.52,0,0,0,0,0.034828
2022/02/04 00:35:00.003,n,265,2.16,2.16,2.16,21.2,77.4,1004.52,0,0,0,0,0.033951
2022/02/04 00:36:00.008,n,183,2.16,1.44,3.6,21.3,77.6,1004.52,0,0,0,0,0.033951
2022/02/04 00:37:00.000,n,187,3.6,2.16,4.68,21.3,77.2,1004.52,0,0,0,0,0.034828
2022/02/04 00:38:00.000,n,128,1.08,0.36,2.88,21.3,77.5,1004.52,0,0,0,0,0.033951
2022/02/04 00:39:00.000,n,194,4.32,3.6,4.68,21.3,77.6,1004.52,0,0,0,0,0.034828
2022/02/04 00:40:00.006,n,284,3.6,2.88,4.68,21.2,77.2,1004.52,0.01,0.4,0,0,0.035706
2022/02/04 00:41:00.004,n,245,3.6,3.24,4.32,21.2,77.5,1004.52,0.01,0,0,0,0.034828
2022/02/04 00:42:00.001,n,259,6.48,3.96,9.36,21.2,77.2,1004.42,0.01,0,0,0,0.033112
2022/02/04 00:43:00.000,n,208,1.44,0.36,2.52,21.1,77.2,1004.42,0.01,0,0,0,0.035706
2022/02/04 00:44:00.012,n,248,2.88,1.8,5.4,21.1,77.2,1004.42,0.01,0,0,0,0.033112
2022/02/04 00:45:00.010,n,172,2.88,2.16,3.24,21.1,77,1004.42,0.01,0,0,0,0.030479
2022/02/04 00:46:00.000,n,293,3.6,2.88,4.32,21.1,77.1,1004.42,0.01,0,0,0,0.035706
2022/02/04 00:47:00.003,n,206,1.44,1.08,1.8,21.1,77,1004.42,0.01,0,0,0,0.032234
2022/02/04 00:48:00.000,n,260,4.32,3.96,4.68,21.1,76.8,1004.42,0.01,0,0,0,0.032234
2022/02/04 00:49:00.007,n,261,4.68,4.32,5.4,21.1,76.9,1004.42,0.01,0,0,0,0.035706
2022/02/04 00:50:00.004,n,185,1.8,1.08,2.88,21.1,76.9,1004.42,0.01,0,0,0,0.036583
2022/02/04 00:51:00.000,n,233,4.32,3.96,5.04,21.2,77.1,1004.42,0.01,0,0,0,0.032234
2022/02/04 00:52:00.000,n,333,2.16,1.8,2.88,21.2,76.6,1004.32,0.01,0,0,0,0.034828
2022/02/04 00:53:00.012,n,218,3.24,2.88,3.6,21.2,76.6,1004.32,0.01,0,0,0,0.03746
2022/02/04 00:54:00.010,n,207,4.32,3.24,5.4,21.2,76.6,1004.32,0.01,0,0,0,0.033951
2022/02/04 00:55:00.000,n,208,0.36,0,0.72,21.2,76.8,1004.32,0.01,0,0,0,0.033112
2022/02/04 00:56:00.003,n,173,3.24,2.52,5.04,21.2,76.9,1004.32,0.01,0,0,0,0.036583
2022/02/04 00:57:00.000,n,110,2.16,0,3.96,21.2,76.7,1004.32,0.01,0,0,0,0.033112
2022/02/04 00:58:00.000,n,234,2.88,2.16,3.24,21.2,76.8,1004.32,0.01,0,0,0,0.035706
2022/02/04 00:59:00.000,n,186,3.6,2.52,4.68,21.2,76.6,1004.32,0.01,0,0,0,0.034828
2022/02/04 01:00:00.009,n,241,4.32,3.96,4.68,21.2,76.4,1004.32,0.01,0,0,0,0.032234
2022/02/04 01:01:00.006,n,296,1.08,0.36,1.8,21.2,76.4,1004.22,0.01,0,0,0,0.031357
2022/02/04 01:02:00.004,n,216,5.04,3.6,5.76,21.2,76.7,1004.22,0.01,0,0,0,0.034828
2022/02/04 01:03:00.001,n,246,2.88,2.16,3.6,21.2,76.5,1004.22,0.01,0,0,0,0.033112
2022/02/04 01:04:00.000,n,268,3.6,2.52,3.96,21.2,76.4,1004.22,0.01,0,0,0,0.033112
2022/02/04 01:05:00.000,n,257,4.68,3.96,5.76,21.2,76.2,1004.22,0.01,0,0,0,0.032234
2022/02/04 01:06:00.000,n,257,8.28,7.56,9.36,21.2,75.9,1004.22,0.01,0,0,0,0.032234
2022/02/04 01:07:00.004,n,164,3.96,2.52,5.4,21.1,76.1,1004.22,0.01,0,0,0,0.033112
2022/02/04 01:08:00.002,n,269,4.68,3.96,5.04,21.1,76,1004.22,0.01,0,0,0,0.035706
2022/02/04 01:09:00.000,n,268,5.04,2.88,8.64,21.1,76.2,1004.22,0.01,0,0,0,0.030479
2022/02/04 01:10:00.000,n,240,1.8,0.36,4.68,21.1,76.1,1004.22,0.01,0,0,0,0.033112
2022/02/04 01:11:00.009,n,295,5.4,4.68,6.48,21.2,76.3,1004.22,0.01,0,0,0,0.033951
2022/02/04 01:12:00.007,n,269,5.76,5.4,6.12,21.2,75.7,1004.12,0.01,0,0,0,0.035706
2022/02/04 01:13:00.000,n,277,7.2,6.48,8.28,21.2,76,1004.12,0.01,0,0,0,0.035706
2022/02/04 01:14:00.000,n,258,3.24,2.16,3.96,21.1,75.8,1004.12,0.01,0,0,0,0.033112
2022/02/04 01:15:00.000,n,256,7.92,6.12,9,21.1,75.7,1004.12,0.01,0,0,0,0.036583
2022/02/04 01:16:00.000,n,207,2.52,2.16,2.88,21.1,75.8,1004.12,0.01,0,0,0,0.033951
2022/02/04 01:17:00.008,n,235,2.52,1.8,3.24,21.1,75.9,1004.12,0.01,0,0,0,0.033951
2022/02/04 01:18:00.006,n,266,5.4,4.68,6.84,21.2,76,1004.02,0.01,0,0,0,0.034828
2022/02/04 01:19:00.003,n,212,4.68,4.32,5.04,21.2,75.7,1004.02,0.01,0,0,0,0.036583
2022/02/04 01:20:00.000,n,205,2.16,1.44,2.88,21.2,76,1004.02,0.01,0,0,0,0.036583
2022/02/04 01:21:00.013,n,190,2.52,2.16,4.32,21.2,76,1004.02,0.01,0,0,0,0.036583
2022/02/04 01:22:00.000,n,225,2.88,2.16,3.24,21.2,76.3,1004.02,0.01,0,0,0,0.035706
2022/02/04 01:23:00.000,n,160,1.08,0.36,1.8,21.2,76.4,1004.02,0.01,0,0,0,0.036583
2022/02/04 01:24:00.000,n,173,5.4,4.68,7.56,21.2,75.7,1004.12,0.01,0,0,0,0.035706
2022/02/04 01:25:00.002,n,247,1.08,0.36,1.8,21.2,76.1,1004.12,0.01,0,0,0,0.033951
2022/02/04 01:26:00.000,n,194,1.08,0.36,1.8,21.2,76.2,1004.12,0.01,0,0,0,0.035706
2022/02/04 01:27:00.000,n,276,4.32,0.72,6.48,21.2,76.6,1004.02,0.01,0,0,0,0.033951
2022/02/04 01:28:00.009,n,206,2.16,1.08,3.24,21.3,76.1,1004.02,0.01,0,0,0,0.032234
2022/02/04 01:29:00.007,n,148,6.12,3.96,7.2,21.2,75.7,1004.02,0.01,0,0,0,0.033951
2022/02/04 01:30:00.003,n,126,1.08,0.72,1.8,21.2,75.6,1004.02,0.01,0,0,0,0.0383
2022/02/04 01:31:00.001,n,262,1.8,0.72,2.52,21.2,75.6,1004.02,0.01,0,0,0,0.035706
2022/02/04 01:32:00.000,n,245,2.88,1.8,3.96,21.2,75.8,1004.02,0.01,0,0,0,0.032234
2022/02/04 01:33:00.000,n,218,2.52,1.8,2.88,21.2,75.6,1004.02,0.01,0,0,0,0.033951
2022/02/04 01:34:00.000,n,207,2.16,1.8,3.96,21.2,75.8,1004.02,0.01,0,0,0,0.03746
2022/02/04 01:35:00.004,n,1,1.44,0.36,2.16,21.2,76.1,1004.02,0.01,0,0,0,0.031357
2022/02/04 01:36:00.001,n,180,2.88,2.16,4.32,21.2,75.8,1004.02,0.01,0,0,0,0.033951
2022/02/04 01:37:00.000,n,181,0.72,0.36,1.44,21.2,75.7,1004.02,0.01,0,0,0,0.033951
2022/02/04 01:38:00.011,n,204,3.96,1.44,5.4,21.2,75.4,1004.02,0.01,0,0,0,0.035706
2022/02/04 01:39:00.009,n,331,2.52,1.8,3.6,21.2,75.5,1004.02,0.01,0,0,0,0.035706
2022/02/04 01:40:00.000,n,286,4.68,3.6,6.12,21.2,75.2,1004.02,0.01,0,0,0,0.03746
2022/02/04 01:41:00.002,n,258,1.44,1.08,1.8,21.2,75.5,1004.02,0.01,0,0,0,0.0383
2022/02/04 01:42:00.000,n,318,1.44,0.72,1.8,21.2,75.4,1004.02,0.01,0,0,0,0.036583
2022/02/04 01:43:00.000,n,227,4.32,3.6,5.04,21.2,75.2,1004.02,0.01,0,0,0,0.036583
2022/02/04 01:44:00.000,n,29,1.44,1.08,1.8,21.2,75.1,1003.92,0.01,0,0,0,0.03746
2022/02/04 01:45:00.006,n,103,1.08,0.36,2.52,21.2,75.2,1003.92,0.01,0,0,0,0.035706
2022/02/04 01:46:00.004,n,154,10.440002,9.36,11.16,21.2,74.6,1003.92,0.01,0,0,0,0.040054
2022/02/04 01:47:00.001,n,278,2.88,0.72,3.96,21.2,75,1003.92,0.01,0,0,0,0.0383
2022/02/04 01:48:00.014,n,235,1.8,1.8,2.52,21.2,75.2,1003.92,0.01,0,0,0,0.03746
2022/02/04 01:49:00.000,n,315,0.72,0.36,1.44,21.3,75.3,1003.92,0.01,0,0,0,0.039177
2022/02/04 01:50:00.000,n,186,3.96,3.96,4.68,21.3,74.8,1003.92,0.01,0,0,0,0.035706
2022/02/04 01:51:00.000,n,233,1.8,1.08,2.52,21.2,74.8,1003.92,0.01,0,0,0,0.03746
2022/02/04 01:52:00.002,n,52,2.16,1.44,2.88,21.2,75,1003.92,0.01,0,0,0,0.03746
2022/02/04 01:53:00.000,n,153,3.6,2.16,4.68,21.3,74.6,1003.92,0.01,0,0,0,0.036583
2022/02/04 01:54:00.000,n,181,4.32,3.96,5.04,21.2,74.4,1003.92,0.01,0,0,0,0.034828
2022/02/04 01:55:00.010,n,155,3.96,0.72,5.76,21.2,74.7,1003.92,0.01,0,0,0,0.035706
2022/02/04 01:56:00.007,n,186,4.68,2.88,7.2,21.2,74.4,1003.92,0.01,0,0,0,0.033951
2022/02/04 01:57:00.004,n,157,5.04,3.96,5.76,21.2,74.5,1003.92,0.01,0,0,0,0.036583
2022/02/04 01:58:00.002,n,208,5.76,5.04,6.84,21.3,74.3,1003.92,0.01,0,0,0,0.036583
2022/02/04 01:59:00.000,n,206,6.48,5.04,8.28,21.2,74.1,1003.92,0.01,0,0,0,0.039177
2022/02/04 02:00:00.000,n,197,2.52,2.16,2.88,21.2,74.4,1003.92,0.01,0,0,0,0.035706
2022/02/04 02:01:00.000,n,173,4.32,3.6,5.4,21.2,74.1,1003.92,0.01,0,0,0,0.035706
2022/02/04 02:02:00.005,n,245,2.52,1.08,3.96,21.2,74,1003.92,0.01,0,0,0,0.033951
2022/02/04 02:03:00.003,n,220,5.4,5.04,5.76,21.2,74.1,1003.92,0.01,0,0,0,0.035706
2022/02/04 02:04:00.000,n,190,2.16,0.72,3.96,21.2,73.9,1003.82,0.01,0,0,0,0.033951
2022/02/04 02:05:00.012,n,234,2.16,1.8,2.88,21.2,74.1,1003.82,0.01,0,0,0,0.035706
2022/02/04 02:06:00.010,n,215,2.88,2.52,3.24,21.2,74.2,1003.82,0.01,0,0,0,0.033112
2022/02/04 02:07:00.000,n,241,1.8,1.44,1.8,21.2,74.3,1003.82,0.01,0,0,0,0.034828
2022/02/04 02:08:00.003,n,187,2.52,0.72,3.24,21.2,74.3,1003.82,0.01,0,0,0,0.034828
2022/02/04 02:09:00.001,n,175,5.4,4.68,5.76,21.2,74.3,1003.82,0.01,0,0,0,0.033112
2022/02/04 02:10:00.000,n,210,2.88,2.52,3.24,21.2,74.4,1003.82,0.01,0,0,0,0.033112
2022/02/04 02:11:00.000,n,169,6.48,5.4,7.56,21.2,74.4,1003.82,0.01,0,0,0,0.033951
2022/02/04 02:12:00.007,n,292,1.44,1.08,1.8,21.2,75.2,1003.82,0.01,0,0,0,0.032234
2022/02/04 02:13:00.005,n,326,1.8,0.36,3.96,21.2,74.5,1003.82,0.01,0,0,0,0.031357
2022/02/04 02:14:00.001,n,193,2.16,1.8,2.88,21.2,74.6,1003.82,0.01,0,0,0,0.032234
2022/02/04 02:15:00.015,n,174,3.6,3.24,3.96,21.1,74.2,1003.82,0.01,0,0,0,0.031357
2022/02/04 02:16:00.000,n,248,9.72,7.56,10.8,21.1,74.2,1003.82,0.01,0,0,0,0.028725
2022/02/04 02:17:00.000,n,198,7.2,5.04,8.64,21.1,74.1,1003.72,0.01,0,0,0,0.030479
2022/02/04 02:18:00.000,n,126,2.16,0.36,3.24,21.1,74.5,1003.72,0.01,0,0,0,0.031357
2022/02/04 02:19:00.003,n,200,2.88,2.52,3.24,21.1,74.3,1003.72,0.01,0,0,0,0.033112
2022/02/04 02:20:00.000,n,282,5.04,3.96,7.2,21.1,74.3,1003.72,0.01,0,0,0,0.030479
2022/02/04 02:21:00.000,n,181,4.68,1.08,7.56,21,74,1003.72,0.01,0,0,0,0.031357
2022/02/04 02:22:00.011,n,204,2.88,1.8,3.96,21,74.2,1003.72,0.01,0,0,0,0.033951
2022/02/04 02:23:00.008,n,174,5.76,5.04,8.28,21,73.9,1003.72,0.01,0,0,0,0.033112
2022/02/04 02:24:00.005,n,266,1.8,1.44,2.16,21,74.2,1003.72,0.01,0,0,0,0.030479
2022/02/04 02:25:00.002,n,251,2.52,0.72,3.24,21,74.2,1003.72,0.01,0,0,0,0.030479
2022/02/04 02:26:00.000,n,228,1.44,0.36,2.52,21,73.5,1003.72,0.01,0,0,0,0.028725
2022/02/04 02:27:00.000,n,208,6.48,5.4,7.56,20.9,73.5,1003.72,0.01,0,0,0,0.028725
2022/02/04 02:28:00.000,n,256,3.96,2.52,4.68,20.9,73.6,1003.72,0.01,0,0,0,0.032234
2022/02/04 02:29:00.007,n,255,8.64,6.84,9.36,20.9,73.3,1003.72,0.01,0,0,0,0.030479
2022/02/04 02:30:00.004,n,252,8.64,5.4,10.440002,20.9,73.2,1003.72,0.01,0,0,0,0.028725
2022/02/04 02:31:00.001,n,213,2.52,2.16,3.24,20.9,73.1,1003.62,0.01,0,0,0,0.025253
2022/02/04 02:32:00.000,n,272,5.04,3.96,6.12,20.9,73.5,1003.62,0.01,0,0,0,0.027008
2022/02/04 02:33:00.012,n,247,7.92,6.84,8.64,20.9,73.3,1003.72,0.01,0,0,0,0.025253
2022/02/04 02:34:00.000,n,177,5.76,4.68,6.84,20.9,73.2,1003.62,0.01,0,0,0,0.027885
2022/02/04 02:35:00.000,n,246,1.44,0.36,2.52,20.9,73.2,1003.72,0.01,0,0,0,0.024376
2022/02/04 02:36:00.003,n,221,7.56,7.2,8.64,20.9,73.2,1003.72,0.01,0,0,0,0.028725
2022/02/04 02:37:00.000,n,324,1.44,1.08,1.8,20.9,73.2,1003.72,0.01,0,0,0,0.030479
2022/02/04 02:38:00.000,n,198,5.04,3.6,6.48,20.9,73.1,1003.72,0.01,0,0,0,0.027008
2022/02/04 02:39:00.010,n,174,3.6,2.16,4.32,20.9,73.2,1003.62,0.01,0,0,0,0.022659
2022/02/04 02:40:00.008,n,218,4.68,3.96,5.04,20.9,72.9,1003.62,0.01,0,0,0,0.024376
2022/02/04 02:41:00.004,n,202,2.88,1.8,3.6,20.9,73.1,1003.62,0.01,0,0,0,0.024376
2022/02/04 02:42:00.002,n,230,5.04,4.68,5.4,20.9,72.9,1003.62,0.01,0,0,0,0.020905
2022/02/04 02:43:00.000,n,222,6.48,5.04,8.64,20.9,72.9,1003.62,0.01,0,0,0,0.025253
2022/02/04 02:44:00.000,n,191,2.52,1.08,3.24,20.9,72.6,1003.62,0.01,0,0,0,0.023537
2022/02/04 02:45:00.000,n,296,1.08,1.08,1.44,20.9,72.8,1003.62,0.01,0,0,0,0.023537
2022/02/04 02:46:00.005,n,256,3.96,2.16,6.48,20.9,73.2,1003.72,0.01,0,0,0,0.022659
2022/02/04 02:47:00.003,n,179,7.92,4.32,11.16,20.9,72.8,1003.72,0.01,0,0,0,0.020905
2022/02/04 02:48:00.000,n,229,6.12,5.4,6.84,20.8,72.4,1003.72,0.01,0,0,0,0.020905
2022/02/04 02:49:00.000,n,283,4.68,3.6,6.12,20.8,73,1003.72,0.01,0,0,0,0.021782
2022/02/04 02:50:00.010,n,246,2.52,2.52,3.6,20.9,72.8,1003.62,0.01,0,0,0,0.022583
2022/02/04 02:51:00.004,n,236,2.16,1.08,2.52,20.9,72.7,1003.62,0.01,0,0,0,0.02697
2022/02/04 02:52:00.001,n,209,1.8,1.08,2.88,20.9,72.1,1003.62,0.01,0,0,0,0.024376
2022/02/04 02:53:00.000,n,234,9,6.48,12.24,20.9,72,1003.62,0.01,0,0,0,0.028725
2022/02/04 02:54:00.000,n,245,4.32,3.6,4.68,20.8,72.1,1003.62,0.01,0,0,0,0.027809
2022/02/04 02:55:00.000,n,254,2.88,1.44,4.32,20.8,71.8,1003.62,0.01,0,0,0,0.026093
2022/02/04 02:56:00.006,n,217,3.24,2.88,3.6,20.8,72.3,1003.72,0.01,0,0,0,0.025215
2022/02/04 02:57:00.003,n,167,2.16,0.72,3.24,20.8,71.6,1003.62,0.01,0,0,0,0.024376
2022/02/04 02:58:00.000,n,286,2.16,1.8,2.52,20.8,71.7,1003.62,0.01,0,0,0,0.023499
2022/02/04 02:59:00.013,n,221,2.88,1.8,3.6,20.8,71.5,1003.62,0.01,0,0,0,0.026093
2022/02/04 03:00:00.011,n,307,3.6,3.24,4.32,20.8,71.6,1003.62,0.01,0,0,0,0.024376
2022/02/04 03:01:00.000,n,264,1.44,1.08,1.8,20.8,71.6,1003.62,0.01,0,0,0,0.019989
2022/02/04 03:02:00.000,n,247,4.32,2.16,6.48,20.7,71.6,1003.62,0.01,0,0,0,0.024376
2022/02/04 03:03:00.000,n,141,1.8,1.44,2.52,20.8,71.8,1003.72,0.01,0,0,0,0.021744
2022/02/04 03:04:00.000,n,187,5.04,3.6,6.48,20.8,71.1,1003.72,0.01,0,0,0,0.024376
2022/02/04 03:05:00.000,n,145,2.52,1.8,2.88,20.8,71.2,1003.72,0.01,0,0,0,0.020866
2022/02/04 03:06:00.007,n,143,6.12,1.8,8.28,20.8,71.2,1003.72,0.01,0,0,0,0.023499
2022/02/04 03:07:00.005,n,171,5.04,4.32,6.48,20.8,70.8,1003.72,0.01,0,0,0,0.023499
2022/02/04 03:08:00.002,n,229,6.48,5.4,7.56,20.8,70.8,1003.82,0.01,0,0,0,0.020866
2022/02/04 03:09:00.015,n,169,2.88,2.16,3.96,20.8,70.6,1003.82,0.01,0,0,0,0.023499
2022/02/04 03:10:00.000,n,242,1.44,1.08,1.8,20.8,70.7,1003.82,0.01,0,0,0,0.021744
2022/02/04 03:11:00.000,n,190,4.68,3.6,5.76,20.8,70.3,1003.82,0.01,0,0,0,0.023499
2022/02/04 03:12:00.000,n,120,1.8,1.44,2.16,20.8,70.3,1003.82,0.01,0,0,0,0.019989
2022/02/04 03:13:00.003,n,187,3.6,2.52,4.32,20.8,70.1,1003.82,0.01,0,0,0,0.01915
2022/02/04 03:14:00.000,n,206,3.96,2.88,4.68,20.7,70,1003.82,0.01,0,0,0,0.020866
2022/02/04 03:15:00.000,n,160,4.68,3.6,6.12,20.7,69.6,1003.82,0.01,0,0,0,0.017357
2022/02/04 03:16:00.011,n,147,2.16,1.8,2.88,20.7,69.8,1003.82,0.01,0,0,0,0.020866
2022/02/04 03:17:00.009,n,172,2.88,2.52,3.96,20.7,69.5,1003.82,0.01,0,0,0,0.021744
2022/02/04 03:18:00.007,n,163,7.92,6.84,9.36,20.7,69.1,1003.82,0.01,0,0,0,0.021744
2022/02/04 03:19:00.000,n,168,0.72,0,0.72,20.7,69.6,1003.82,0.01,0,0,0,0.019989
2022/02/04 03:20:00.000,n,177,7.92,7.56,8.64,20.7,68.5,1003.82,0.01,0,0,0,0.016518
2022/02/04 03:21:00.000,n,183,6.48,5.4,6.84,20.7,68.5,1003.92,0.01,0,0,0,0.021744
2022/02/04 03:22:00.000,n,183,8.64,6.48,10.440002,20.7,68.5,1003.92,0.01,0,0,0,0.020866
2022/02/04 03:23:00.008,n,145,5.76,4.68,7.2,20.7,67.8,1003.92,0.01,0,0,0,0.017357
2022/02/04 03:24:00.006,n,208,1.08,0.36,2.52,20.7,68.3,1003.92,0.01,0,0,0,0.016518
2022/02/04 03:25:00.003,n,170,7.2,5.76,8.28,20.7,68.3,1003.92,0.01,0,0,0,0.020866
2022/02/04 03:26:00.000,n,206,6.84,5.4,7.56,20.7,67.5,1003.82,0.01,0,0,0,0.01915
2022/02/04 03:27:00.013,n,240,5.04,2.52,6.48,20.7,67.5,1003.92,0.01,0,0,0,0.020866
2022/02/04 03:28:00.000,n,201,0.72,0.36,1.44,20.7,68.1,1003.92,0.01,0,0,0,0.018272
2022/02/04 03:29:00.000,n,257,4.68,3.24,5.04,20.7,67.9,1003.92,0.01,0,0,0,0.026093
2022/02/04 03:30:00.004,n,211,6.12,4.32,7.56,20.7,67.8,1003.92,0.01,0,0,0,0.032158
2022/02/04 03:31:00.002,n,166,5.04,3.24,5.4,20.6,67.6,1003.92,0.01,0,0,0,0.028687
2022/02/04 03:32:00.000,n,281,3.6,3.24,4.32,20.6,67.4,1003.92,0.01,0,0,0,0.026093
2022/02/04 03:33:00.000,n,249,5.04,4.68,5.4,20.7,68.3,1003.92,0.01,0,0,0,0.031319
2022/02/04 03:34:00.009,n,214,4.32,2.88,5.04,20.7,67.3,1003.82,0.01,0,0,0,0.027809
2022/02/04 03:35:00.006,n,232,4.68,4.32,5.76,20.6,67.5,1003.92,0.01,0,0,0,0.025215
2022/02/04 03:36:00.004,n,285,3.6,2.52,4.68,20.6,67.6,1003.92,0.01,0,0,0,0.028687
2022/02/04 03:37:00.001,n,200,3.24,0.72,5.04,20.6,67.1,1003.92,0.01,0,0,0,0.022583
2022/02/04 03:38:00.000,n,167,6.12,5.4,6.48,20.6,67.3,1003.92,0.01,0,0,0,0.02697
2022/02/04 03:39:00.000,n,162,4.68,0.72,6.12,20.6,67.5,1003.92,0.01,0,0,0,0.025215
2022/02/04 03:40:00.000,n,171,1.08,0.36,2.52,20.6,67.5,1003.92,0.01,0,0,0,0.024376
2022/02/04 03:41:00.005,n,336,0.72,0.36,1.44,20.6,67.8,1003.92,0.01,0,0,0,0.027809
2022/02/04 03:42:00.002,n,276,2.52,2.16,2.88,20.6,67.7,1003.92,0.01,0,0,0,0.022583
2022/02/04 03:43:00.000,n,179,3.96,3.24,5.04,20.6,67.4,1003.82,0.01,0,0,0,0.022583
2022/02/04 03:44:00.014,n,235,3.6,1.8,4.68,20.5,67.7,1003.92,0.01,0,0,0,0.022583
2022/02/04 03:45:00.011,n,217,3.24,2.88,3.6,20.5,67.7,1003.82,0.01,0,0,0,0.02346
2022/02/04 03:46:00.000,n,183,1.8,1.44,2.52,20.5,67.8,1003.92,0.01,0,0,0,0.021744
2022/02/04 03:47:00.000,n,185,4.68,3.96,5.4,20.5,67.4,1003.92,0.01,0,0,0,0.021744
2022/02/04 03:48:00.001,n,259,6.12,2.52,7.92,20.4,67.5,1003.92,0.01,0,0,0,0.022583
2022/02/04 03:49:00.000,n,295,2.16,1.08,2.88,20.4,67.6,1003.92,0.01,0,0,0,0.026093
2022/02/04 03:50:00.000,n,275,2.88,2.52,3.24,20.4,67.9,1003.92,0.01,0,0,0,0.020866
2022/02/04 03:51:00.008,n,286,1.44,0.36,3.6,20.4,68,1003.92,0.01,0,0,0,0.022583
2022/02/04 03:52:00.005,n,190,3.24,2.88,3.6,20.4,67.5,1003.92,0.01,0,0,0,0.020866
2022/02/04 03:53:00.003,n,260,1.8,0.36,2.88,20.4,68,1004.02,0.01,0,0,0,0.021744
2022/02/04 03:54:00.015,n,238,3.96,3.24,5.4,20.4,67.6,1004.02,0.01,0,0,0,0.022583
2022/02/04 03:55:00.000,n,235,3.24,2.52,3.6,20.3,67.8,1004.02,0.01,0,0,0,0.022583
2022/02/04 03:56:00.000,n,179,2.52,2.52,2.88,20.3,68,1004.02,0.01,0,0,0,0.019989
2022/02/04 03:57:00.000,n,246,4.32,3.24,5.04,20.3,67.5,1004.02,0.01,0,0,0,0.023499
2022/02/04 03:58:00.001,n,175,2.88,2.52,3.6,20.3,67.8,1003.92,0.01,0,0,0,0.027847
2022/02/04 03:59:00.000,n,204,5.04,4.32,6.12,20.3,68,1003.92,0.01,0,0,0,0.027847
2022/02/04 04:00:00.000,n,240,3.96,3.24,4.68,20.3,68.2,1003.92,0.01,0,0,0,0.024376
2022/02/04 04:01:00.008,n,270,6.48,4.68,9,20.3,68,1004.02,0.01,0,0,0,0.027847
2022/02/04 04:02:00.006,n,254,2.52,2.16,2.88,20.3,67.9,1004.02,0.01,0,0,0,0.025215
2022/02/04 04:03:00.003,n,204,2.88,2.16,4.32,20.3,68,1004.02,0.01,0,0,0,0.024376
2022/02/04 04:04:00.000,n,184,3.6,2.88,4.68,20.3,68.2,1004.02,0.01,0,0,0,0.024376
2022/02/04 04:05:00.000,n,220,2.16,0.72,2.88,20.3,68.4,1004.02,0.01,0,0,0,0.023499
2022/02/04 04:06:00.000,n,282,4.68,3.6,5.4,20.3,68.6,1004.02,0.01,0,0,0,0.026131
2022/02/04 04:07:00.000,n,240,2.88,2.52,5.04,20.2,68.2,1004.02,0.01,0,0,0,0.019989
2022/02/04 04:08:00.005,n,147,1.08,0.72,1.44,20.2,68.2,1004.02,0.01,0,0,0,0.023499
2022/02/04 04:09:00.002,n,267,1.8,1.08,2.16,20.2,68.3,1004.02,0.01,0,0,0,0.020905
2022/02/04 04:10:00.001,n,167,2.16,1.08,3.24,20.2,68.4,1004.02,0.01,0,0,0,0.020905
2022/02/04 04:11:00.015,n,143,2.16,0.72,3.96,20.2,68.6,1004.02,0.01,0,0,0,0.01915
2022/02/04 04:12:00.011,n,170,2.16,1.44,2.88,20.2,68.6,1004.02,0.01,0,0,0,0.021782
2022/02/04 04:13:00.000,n,255,5.76,5.04,6.48,20.2,68.3,1004.02,0.01,0,0,0,0.019989
2022/02/04 04:14:00.000,n,244,2.52,2.16,3.24,20.2,68.8,1004.02,0.01,0,0,0,0.019989
2022/02/04 04:15:00.002,n,252,2.16,2.16,2.52,20.2,68.5,1004.02,0.01,0,0,0,0.018272
2022/02/04 04:16:00.000,n,196,3.96,1.44,5.76,20.2,68.6,1004.12,0.01,0,0,0,0.013924
2022/02/04 04:17:00.000,n,208,2.16,1.8,2.52,20.2,68.3,1004.12,0.01,0,0,0,0.020905
2022/02/04 04:18:00.010,n,202,6.12,5.04,6.84,20.2,68.4,1004.12,0.01,0,0,0,0.021782
2022/02/04 04:19:00.008,n,256,0.72,0.36,2.16,20.2,68.3,1004.12,0.01,0,0,0,0.020905
2022/02/04 04:20:00.005,n,184,1.44,1.08,1.8,20.2,68.8,1004.12,0.01,0,0,0,0.01915
2022/02/04 04:21:00.002,n,324,1.44,0.72,1.8,20.2,68.7,1004.12,0.01,0,0,0,0.018272
2022/02/04 04:22:00.000,n,219,4.32,3.6,5.76,20.2,68.5,1004.12,0.01,0,0,0,0.01915
2022/02/04 04:23:00.000,n,207,1.08,0.72,1.08,20.1,68.5,1004.12,0.01,0,0,0,0.013924
2022/02/04 04:24:00.000,n,177,2.52,1.44,2.88,20.1,68.8,1004.12,0.01,0,0,0,0.015678
2022/02/04 04:25:00.006,n,198,2.16,1.8,2.52,20.1,69.1,1004.12,0.01,0,0,0,0.016556
2022/02/04 04:26:00.004,n,237,2.52,1.8,2.88,20.1,69,1004.22,0.01,0,0,0,0.025253
2022/02/04 04:27:00.000,n,280,2.16,1.8,2.16,20.1,69.1,1004.22,0.01,0,0,0,0.027885
2022/02/04 04:28:00.011,n,240,2.88,2.52,3.24,20.1,69.1,1004.22,0.01,0,0,0,0.030479
2022/02/04 04:29:00.008,n,249,1.08,0.36,2.16,20.1,69.1,1004.22,0.01,0,0,0,0.027885
2022/02/04 04:30:00.005,n,241,2.16,2.16,2.88,20.1,69.1,1004.22,0.01,0,0,0,0.027008
2022/02/04 04:31:00.002,n,223,1.8,1.8,1.8,20.1,69.4,1004.22,0.01,0,0,0,0.025253
2022/02/04 04:32:00.000,n,260,2.52,2.16,2.88,20,69.4,1004.22,0.01,0,0,0,0.027008
2022/02/04 04:33:00.000,n,247,2.88,2.16,3.6,20,69.7,1004.22,0.01,0,0,0,0.027885
2022/02/04 04:34:00.000,n,259,2.52,2.16,2.88,20,69.9,1004.22,0.01,0,0,0,0.024376
2022/02/04 04:35:00.006,n,246,3.6,2.88,4.68,20,70,1004.22,0.01,0,0,0,0.024376
2022/02/04 04:36:00.003,n,162,1.8,1.08,2.16,20,70.6,1004.22,0.01,0,0,0,0.025253
2022/02/04 04:37:00.000,n,183,1.08,0.72,2.52,20,70.7,1004.22,0.01,0,0,0,0.021744
2022/02/04 04:38:00.013,n,338,1.44,0.36,2.52,20,70.7,1004.22,0.01,0,0,0,0.020027
2022/02/04 04:39:00.009,n,252,1.8,0.36,3.96,20,71.2,1004.32,0.01,0,0,0,0.023499
2022/02/04 04:40:00.000,n,284,2.16,1.8,2.88,20,70.9,1004.32,0.01,0,0,0,0.021744
2022/02/04 04:41:00.003,n,214,1.8,0.72,2.52,20,71.7,1004.32,0.01,0,0,0,0.020027
2022/02/04 04:42:00.001,n,250,2.52,2.52,2.52,20,71.4,1004.32,0.01,0,0,0,0.023499
2022/02/04 04:43:00.000,n,226,3.6,3.24,4.68,20,71.5,1004.32,0.01,0,0,0,0.021744
2022/02/04 04:44:00.000,n,186,3.6,2.88,3.96,20,71.8,1004.42,0.01,0,0,0,0.020905
2022/02/04 04:45:00.008,n,184,2.16,1.44,2.88,20,71.9,1004.42,0.01,0,0,0,0.023499
2022/02/04 04:46:00.005,n,208,3.6,2.88,4.32,20,72.2,1004.42,0.01,0,0,0,0.022659